Location: Auckland
(36.8670°S, 174.7670°E)
Time: 18:48:07
(UTC+12:00)

Courier 1B Rocket - Pass Details

Date: 21 July 2019
Orbit: 920 x 1202 km, 28.2° (Epoch: 25 August)

Event Time Altitude Azimuth Distance (km) Brightness Sun altitude
Rises 06:00:11 0° 291° (WNW) 4,057 - -17.4°
Reaches altitude 10° 06:03:14 10° 298° (WNW) 3,067 - -16.8°
Exits shadow 06:03:42 12° 299° (WNW) 2,921 7.1 -16.8°
Maximum altitude 06:10:14 42° 5° (N) 1,553 6.2 -15.5°
Drops below altitude 10° 06:16:51 10° 73° (ENE) 2,886 8.9 -14.2°
Sets 06:19:38 0° 79° (E) 3,796 10.1 -13.7°
